Regional Weather Roundup
Issued by NWS Burlington, VT

Home | Current Version | Previous Version | Text Only | Print | Product List | Glossary On
Versions: 1 2 3 4 5 6 7 8 9 10 11 12 13 14 15 16 17 18 19 20 21 22 23 24 25 26 27 28 29 30 31 32 33 34 35 36 37 38 39 40 41 42 43 44 45 46 47 48 49 50
000
ASUS41 KBTV 300430
RWRBTV
VERMONT REGIONAL WEATHER ROUNDUP
NATIONAL WEATHER SERVICE BURLINGTON VT
1100 PM EST THU JAN 29 2015

NOTE: "FAIR" INDICATES FEW OR NO CLOUDS BELOW 12,000 FEET WITH NO
SIGNIFICANT WEATHER AND/OR OBSTRUCTIONS TO VISIBILITY.

* THESE REPORTS ARE NOT UNDER NWS QUALITY CONTROL AND/OR DO NOT
  REPORT WEATHER SUCH AS PRECIPITATION AND FOG.

VTZ001>019-300500-
_____VERMONT_____


CITY           SKY/WX    TMP DP  RH WIND       PRES   REMARKS
BURLINGTON     LGT SNOW  28  20  71 S16G23    29.87F WCI  16
MONTPELIER     CLOUDY    26   8  46 S15G25    29.91F WCI  14
MORRISVILLE    CLOUDY    30   9  41 S13G24    29.88F WCI  20
ST. JOHNSBURY*   N/A     28  16  60 MISG      29.91F
LYNDONVILLE*   CLOUDY    26  14  61 SE12G18   29.91F WCI  16
MIDDLEBURY*    LGT SNOW  29  22  74 S12G17    29.88F WCI  20
RUTLAND*       CLOUDY    27  18  69 SE20G25   29.90F WCI  13
SPRINGFIELD    CLOUDY    24  18  77 S5        29.99F
HIGHGATE*      LGT SNOW  28  22  79 S12G24    29.85S WCI  18
NEWPORT*       CLOUDY    27  12  53 S13G20    29.85F WCI  16
BENNINGTON     LGT SNOW  27  23  85 VRB5      29.90F FOG
SUTTON*          N/A     23 N/A N/A MISG        N/A
GALLUP MILLS*    N/A     21 N/A N/A MISG        N/A
UNION VILLAGE*   N/A     27 N/A N/A MISG        N/A
MT. MANSFIELD*   N/A     19 N/A N/A CALM        N/A

_____LAKE CHAMPLAIN_____


CITY           SKY/WX    TMP DP  RH WIND       PRES   REMARKS
BURTON ISLAND*   N/A     30  23  74 S30         N/A  WCI  15
COLCHESTER RF*   N/A     30  25  80 SW33        N/A  WCI  14
DIAMOND ISL*     N/A     28  23  80 S21         N/A  WCI  15

$$

NYZ007-026>031-035-052-083-300500-
_____NORTHERN NEW YORK_____


CITY           SKY/WX    TMP DP  RH WIND       PRES   REMARKS
PLATTSBURGH    LGT SNOW  27  22  81 S18       29.83S WCI  14
SARANAC LAKE   CLOUDY    26  20  77 SW13      29.73S WCI  15
MASSENA        CLOUDY    30  29  96 CALM      29.79F
OGDENSBURG*    MOCLDY    30  27  86 SW9G20    29.76S
POTSDAM*       CLOUDY    34  27  75 SW12      29.76S
STARK FALLS*     N/A     28 N/A N/A S15         N/A  WCI  17
WATERTOWN      LGT SNOW  32  26  78 S12G24    29.76S
FT DRUM        MIX PCPN  30  21  69 S18       29.74S WCI  18
ALBANY         LGT SNOW  28  20  71 S13G26    29.94F WCI  17
GLENS FALLS    LGT SNOW  25  22  88 S6        29.92F VSB 1

$$
NHZ002-005-011-300500-
_____NEW HAMPSHIRE_____


CITY           SKY/WX    TMP DP  RH WIND       PRES   REMARKS
LEBANON        LGT SNOW  26  19  74 S12       29.97S WCI  16
KEENE          CLOUDY    28  16  59 S8        30.01F
MT WASHINGTON  FLURRIES   9  -4  56 S61G69      N/A  WCI -21
PLYMOUTH       CLOUDY    26  20  77 E7        30.01F
WHITEFIELD     CLOUDY    31   8  38 VRB3      29.91F

$$

_____REGIONAL QUEBEC LOCATIONS_____


CITY           SKY/WX    TMP DP  RH WIND       PRES   REMARKS
MONTREAL       LGT SNOW  28  25  86 SE13G20   29.81S DRFTSNOWWCI  18
QUEBEC CITY    LGT SNOW  21  16  79 E6        29.93F
SHERBROOKE     CLOUDY    27  12  54 E6        29.87F

_____REGIONAL ONTARIO LOCATIONS_____


CITY           SKY/WX    TMP DP  RH WIND       PRES   REMARKS
OTTAWA         LGT SNOW  18  16  93 NE6       29.76F VSB 3/4

______KEY______
VSB  - VISIBILITY IN MILES
WCI  - WIND CHILL INDEX
HX   - HEAT INDEX
$$



USA.gov is the U.S. government's official web portal to all federal, state and local government web resources and services.